Location: Beuerbach
(48.1459°N, 10.9174°E)
Time: 23:32:01
(UTC+00:00)

OBJECT C - Visible Passes

Search period start: 11 October 2024 00:00
Search period end: 21 October 2024 00:00
Orbit: 434 x 447 km, 97.4° (Epoch: 11 October)

Date Brightness Start Highest point End Pass type
(mag) Time Alt. Az. Time Alt. Az. Time Alt. Az.
11 Oct ? 18:30:54 10° SSW 18:34:03 36° W 18:37:11 10° NNW visible
12 Oct ? 17:52:46 10° SSE 17:56:05 69° ENE 17:59:25 10° N visible
13 Oct ? 17:15:27 10° ESE 17:18:11 23° ENE 17:20:54 10° NNE visible
13 Oct ? 18:47:55 10° SSW 18:50:39 23° W 18:53:25 10° NW visible
14 Oct ? 18:08:59 10° S 18:12:19 72° WSW 18:15:40 10° NNW visible
15 Oct ? 17:30:57 10° SE 17:34:01 35° ENE 17:37:06 10° N visible
15 Oct ? 19:04:36 10° SW 19:06:41 16° W 19:08:47 10° NW visible
16 Oct ? 16:54:01 10° E 16:55:46 14° ENE 16:57:32 10° NNE visible
16 Oct ? 18:24:57 11° S 18:27:57 44° W 18:31:10 10° NNW visible
17 Oct ? 17:46:14 12° SSE 17:49:16 54° ENE 17:52:32 10° N visible
17 Oct ? 19:21:30 10° W 19:22:07 10° W 19:22:44 10° WNW visible
18 Oct ? 17:08:13 10° ESE 17:10:39 19° ENE 17:13:06 10° NNE visible
18 Oct ? 18:40:47 15° SSW 18:42:59 29° W 18:45:57 10° NW visible
19 Oct ? 18:01:45 20° SSE 18:03:56 86° ENE 18:07:16 10° NNW visible
20 Oct ? 17:22:34 13° ESE 17:24:56 27° ENE 17:27:48 10° N visible
20 Oct ? 18:55:57 15° SW 18:57:25 20° W 18:59:57 10° NW visible
